Flag for Canada Weather past 2 weeks in Grande Prairie, Alberta, Canada

Now
36 °F

Clear.


Feels Like: 33 °F
Forecast: 34 / 60 °F
Wind: 3 mph from Northeast

Location: Grande Prairie

Current Time: Sep 5, 2015 at 12:30:20 AM

Latest Report: Sep 5, 2015 at 12:00 AM


Visibility: 25 mi

Pressure: 30.23 "Hg (27.86 "Hg at 657m altitude)

Humidity: 93%

Dew point: 34 °F

Location of Grande PrairieLocation

Historic Weather in Grande Prairie — Graph

°F

Grande Prairie temperature yesterday

Maximum temperature yesterday: 50 °F (at 7:00 PM)
Minimum temperature yesterday: 36 °F (at 4:00 AM)
Average temperature yesterday: 42 °F

Past Weeks' High & Low Weather Summary

 TemperatureHumidityPressure
High75 °F (Aug 27, 4:00 PM)100% (Aug 27, 5:00 AM)30.29 "Hg (Aug 27, 5:00 AM)
Low36 °F (Aug 22, 6:00 AM)27% (Aug 27, 5:00 PM)29.39 "Hg (Aug 29, 6:00 PM)
Average53 °F68%29.88 "Hg
* Reported Aug 20 11:00 PM — Sep 4 11:00 PM, Grande Prairie, Weather by CustomWeather, © 2015

Note: Actual official high and low records may vary slightly from our data, if they occured in-between our weather recording intervals... More about our weather records

Advertising

Grande Prairie weather history for previous 24 hours

 ConditionsComfort  
Time TempWeatherWind HumidityBarometerVisibility
11:00 PM
Fri, Sep 4
36 °FClear.3 mph93%30.23 "Hg25 mi
10:00 PM41 °FClear.3 mph81%30.23 "Hg25 mi
9:00 PM45 °FPassing clouds.5 mph71%30.23 "Hg25 mi
8:00 PM46 °FPassing clouds.5 mph66%30.23 "Hg25 mi
7:00 PM50 °FScattered clouds.No wind58%30.24 "Hg25 mi
6:00 PM48 °FOvercast.3 mph62%30.26 "Hg25 mi
5:00 PM48 °FOvercast.No wind66%30.27 "Hg25 mi
4:00 PM48 °FOvercast.3 mph66%30.28 "Hg25 mi
3:00 PM46 °FOvercast.5 mph71%30.29 "Hg25 mi
2:00 PM46 °FOvercast.6 mph71%30.29 "Hg25 mi
1:00 PM45 °FOvercast.5 mph76%30.29 "Hg25 mi
12:00 PM45 °FOvercast.5 mph76%30.28 "Hg20 mi
11:00 AM43 °FMore clouds than sun.6 mph87%30.29 "Hg20 mi
10:00 AM41 °FMostly cloudy.7 mph93%30.29 "Hg20 mi
9:00 AM39 °FMore clouds than sun.7 mph93%30.29 "Hg25 mi
8:00 AM37 °FMostly cloudy.7 mph100%30.29 "Hg25 mi
7:00 AM37 °FPassing clouds.6 mph93%30.27 "Hg25 mi
6:45 AM36 °FMostly cloudy.5 mph100%30.27 "Hg25 mi
6:00 AM36 °FPartly cloudy.5 mph93%30.26 "Hg25 mi
5:00 AM36 °FPassing clouds.7 mph100%30.26 "Hg25 mi
4:00 AM36 °FPassing clouds.7 mph93%30.26 "Hg25 mi
3:00 AM37 °FPassing clouds.5 mph93%30.25 "Hg25 mi
2:00 AM39 °FPassing clouds.9 mph87%30.23 "Hg25 mi
1:00 AM39 °FPartly cloudy.10 mph87%30.22 "Hg25 mi
12:00 AM41 °FPartly cloudy.10 mph87%30.22 "Hg25 mi
Weather by CustomWeather, © 2015

See weather overviewHow to use our weather pages